Weather History for KHBR - January, 2014

Change the Weather History Date:

Wednesday, January 15, 2014

  Actual Average Record
Temperature  
Mean Temperature 39 °F -  
Max Temperature 57 °F 47 °F 71 °F (2000)
Min Temperature 21 °F 26 °F 10 °F (2009)
Degree Days  
Heating Degree Days 26    
Moisture  
Dew Point 21 °F    
Average Humidity 52    
Maximum Humidity 85    
Minimum Humidity 24    
Precipitation  
Precipitation 0.00 in - - ()
Sea Level Pressure  
Sea Level Pressure 30.24 in    
Wind  
Wind Speed 11 mph (WSW)    
Max Wind Speed 18 mph    
Max Gust Speed 23 mph    
Visibility 10 miles    
Events      
Averages and records for this station are not official NWS values.
T = Trace of Precipitation, MM = Missing Value Source: NWS Daily Summary

Daily Weather History Graph

Daily Weather History Graph

Search for Another Location

Airport or City:

Trip Planner

Search our weather history database for the weather conditions in past years. The results will help you decide how hot, cold, wet, or windy it might be!

Date:

Astronomy

Jan. 15, 2014 Rise Set
Actual Time 7:43 AM CST 5:47 PM CST
Civil Twilight 7:16 AM CST 6:15 PM CST
Nautical Twilight 6:45 AM CST 6:46 PM CST
Astronomical Twilight 6:14 AM CST 7:16 PM CST
Moon 5:44 PM CST (1/15) 7:02 AM CST (1/15)
Length of Visible Light 10h 59m
Length of Day
10h 04m
Full, 100% of the Moon is Illuminated
Jan 15
Full
Jan 15
Full
Jan 23
Last Quarter
Jan 30
New
Feb 6
First Quarter

Hourly Weather History & Observations

Time (CST) Temp. Windchill Dew Point Humidity Pressure Visibility Wind Dir Wind Speed Gust Speed Precip Events Conditions
12:53 AM 26.1 °F 16.8 °F 19.0 °F 75% 30.40 in 10.0 mi WNW 9.2 mph - N/A   Clear
1:53 AM 30.0 °F 21.7 °F 21.9 °F 72% 30.40 in 10.0 mi WNW 9.2 mph - N/A   Overcast
2:53 AM 28.9 °F 20.4 °F 19.9 °F 69% 30.41 in 10.0 mi NW 9.2 mph - N/A   Scattered Clouds
3:53 AM 28.0 °F 19.3 °F 19.0 °F 69% 30.40 in 10.0 mi NW 9.2 mph - N/A   Clear
4:53 AM 24.1 °F 15.2 °F 18.0 °F 77% 30.40 in 10.0 mi WNW 8.1 mph - N/A   Clear
5:53 AM 24.1 °F 15.2 °F 18.0 °F 77% 30.39 in 10.0 mi WNW 8.1 mph - N/A   Clear
6:53 AM 23.0 °F 13.9 °F 17.1 °F 78% 30.40 in 10.0 mi West 8.1 mph - N/A   Clear
7:53 AM 21.0 °F 14.6 °F 17.1 °F 85% 30.40 in 10.0 mi West 4.6 mph - N/A   Clear
8:53 AM 28.9 °F 20.4 °F 21.0 °F 72% 30.40 in 10.0 mi West 9.2 mph - N/A   Clear
9:53 AM 37.9 °F 30.5 °F 23.0 °F 55% 30.39 in 10.0 mi West 11.5 mph - N/A   Clear
10:53 AM 44.1 °F 38.1 °F 21.9 °F 42% 30.36 in 10.0 mi West 11.5 mph - N/A   Clear
11:53 AM 50.0 °F - 21.0 °F 32% 30.30 in 10.0 mi West 13.8 mph - N/A   Clear
12:53 PM 53.1 °F - 21.9 °F 30% 30.24 in 10.0 mi WSW 18.4 mph - N/A   Clear
1:53 PM 55.0 °F - 21.9 °F 28% 30.18 in 10.0 mi WSW 17.3 mph 23.0 mph N/A   Clear
2:53 PM 57.0 °F - 19.9 °F 24% 30.14 in 10.0 mi WSW 18.4 mph - N/A   Clear
3:53 PM 57.0 °F - 21.0 °F 25% 30.12 in 10.0 mi WSW 16.1 mph - N/A   Clear
4:53 PM 55.9 °F - 21.9 °F 27% 30.10 in 10.0 mi WSW 13.8 mph - N/A   Clear
5:53 PM 46.9 °F - 21.9 °F 37% 30.08 in 10.0 mi SW 12.7 mph - N/A   Clear
6:53 PM 45.0 °F 38.9 °F 21.0 °F 39% 30.07 in 10.0 mi SW 12.7 mph - N/A   Clear
7:53 PM 43.0 °F 36.4 °F 21.0 °F 42% 30.06 in 10.0 mi SSW 12.7 mph - N/A   Clear
8:53 PM 39.0 °F 31.0 °F 21.9 °F 50% 30.04 in 10.0 mi SSW 13.8 mph - N/A   Clear
9:53 PM 39.0 °F 30.6 °F 21.0 °F 49% 30.03 in 10.0 mi SSW 15.0 mph - N/A   Clear
10:53 PM 39.9 °F 31.8 °F 21.0 °F 47% 30.01 in 10.0 mi SSW 15.0 mph - N/A   Clear
11:53 PM 37.0 °F 27.7 °F 21.0 °F 52% 29.99 in 10.0 mi SSW 16.1 mph - N/A   Clear